Location: Laan Hart van Zuid
(52.2563°N, 6.7904°E)
Time: 10:26:25
(UTC+02:00)

ISS - Pass Details

Date: 18 May 2024
Orbit: 411 x 419 km, 51.6° (Epoch: 29 May)

Event Time Altitude Azimuth Distance (km) Brightness Sun altitude
Rises 23:15:21 0° 277° (W) 2,374 0.7 -12.3°
Reaches altitude 10° 23:17:28 10° 275° (W) 1,506 -0.4 -12.4°
Maximum altitude 23:20:50 71° 191° (S) 447 -3.8 -12.7°
Enters shadow 23:23:20 17° 109° (ESE) 1,155 -2.0 -12.9°
